This is the latest recevied weather packets stored in our database for station/object 4S6DRJ-13. If no packets are shown the sender has not sent any weather packets the latest 10 day(s).
| Time | Temp. | Humidity | Pressure | Rain* | Wind** | Luminosity | Snow |
|---|---|---|---|---|---|---|---|
| 1788231427 | 28.89° C | 79% | 1009.3 hPa | 0 mm | 1.79 m/s, 205° | 411 W/m² | - |
| 1788231365 | 28.89° C | 79% | 1009.2 hPa | 0 mm | 1.79 m/s, 137° | 326 W/m² | - |
| 1788231304 | 28.89° C | 79% | 1009.2 hPa | 0 mm | 1.34 m/s, 243° | 162 W/m² | - |
| 1788231243 | 28.89° C | 79% | 1009.6 hPa | 0 mm | 1.34 m/s, 282° | 334 W/m² | - |
| 1788231182 | 29.44° C | 79% | 1009.3 hPa | 0 mm | 2.68 m/s, 235° | 175 W/m² | - |
| 1788231121 | 29.44° C | 79% | 1009.2 hPa | 0 mm | 1.34 m/s, 204° | 204 W/m² | - |
| 1788231060 | 29.44° C | 79% | 1009.1 hPa | 0 mm | 1.79 m/s, 311° | 219 W/m² | - |
| 1788230999 | 29.44° C | 79% | 1009.1 hPa | 0 mm | 0.89 m/s, 121° | 198 W/m² | - |
| 1788230938 | 29.44° C | 78% | 1009.2 hPa | 0 mm | 2.68 m/s, 303° | 190 W/m² | - |
| 1788230877 | 29.44° C | 78% | 1009.3 hPa | 0 mm | 1.34 m/s, 10° | 175 W/m² | - |
| 1788230816 | 29.44° C | 77% | 1009.1 hPa | 0 mm | 1.79 m/s, 337° | 168 W/m² | - |
| 1788230755 | 29.44° C | 77% | 1009.1 hPa | 0 mm | 0.45 m/s, 298° | 177 W/m² | - |
| 1788230694 | 30° C | 77% | 1009 hPa | 0 mm | 2.24 m/s, 123° | 210 W/m² | - |
| 1788230633 | 30° C | 78% | 1009 hPa | 0 mm | 0.45 m/s, 237° | 267 W/m² | - |
| 1788230572 | 30° C | 78% | 1008.9 hPa | 0 mm | 0.89 m/s, 172° | 275 W/m² | - |
| 1788230511 | 30° C | 78% | 1009.2 hPa | 0 mm | 0.89 m/s, 159° | 294 W/m² | - |
| 1788230450 | 30° C | 78% | 1009.1 hPa | 0 mm | 0.89 m/s, 213° | 607 W/m² | - |
| 1788230389 | 30° C | 77% | 1009 hPa | 0 mm | 1.79 m/s, 217° | 599 W/m² | - |
| 1788230328 | 30° C | 77% | 1009 hPa | 0 mm | 3.58 m/s, 230° | 592 W/m² | - |
| 1788230267 | 30° C | 78% | 1009 hPa | 0 mm | 0.89 m/s, 197° | 261 W/m² | - |
| 1788230206 | 29.44° C | 78% | 1009 hPa | 0 mm | 0.89 m/s, 214° | 552 W/m² | - |
| 1788230145 | 29.44° C | 78% | 1009 hPa | 0 mm | 0.89 m/s, 261° | 557 W/m² | - |
| 1788230084 | 29.44° C | 78% | 1008.8 hPa | 0 mm | 0.45 m/s, 154° | 509 W/m² | - |
| 1788230023 | 29.44° C | 78% | 1009 hPa | 0 mm | 1.34 m/s, 146° | 453 W/m² | - |
| 1788229961 | 29.44° C | 78% | 1009.1 hPa | 0 mm | 1.79 m/s, 228° | 341 W/m² | - |
* Rain latest hour (hover to see other rain measurements)
** Current wind speed in m/s (hover to see current wind gust speed)